User: anonymous   Login
Location: York
(31.8935°S, 116.7682°E)
Time: 11:17:21
(UTC+08:00)
Language:

Tiros 1 despin weight - Orbit

View from above orbital plane
View from above orbital plane
View from above satellite
View from above satellite

Ground track
Ground track

The orbit data is extracted from the following two-line orbital elements,

1 00115U 60002D   21163.34908272  .00000005  00000-0  27701-4 0  9999
2 00115  48.1675 343.4053 0034139  34.9770 325.3376 14.83776516245257
Epoch (UTC): 12 June 2021 08:22:40
Eccentricity: 0.0034139
inclination: 48.1675°
perigee height: 593 km
apogee height: 641 km
right ascension of ascending node: 343.4053°
argument of perigee: 34.9770°
revolutions per day: 14.83776516
mean anomaly at epoch: 325.3376°
orbit number at epoch: 24525

The dashed part of the orbit path shows where the satellite is in the earth's shadow,  

DLR